Hourly Data Report for October 02, 2017

All times are specified in Local Standard Time (LST). Add 1 hour to adjust for Daylight Saving Time where and when it is observed.

PEACE RIVER A
ALBERTA

56°13'38.000" N
117°26'54.000" W
570.90 m
3075041
71068
YPE

Download Data

Hourly Data (October 2017)
Hourly Data Report for October 2, 2017
Temp Definition
°C
Dew Point Temp Definition
°C
Rel Hum Definition
%
Wind Dir Definition
10's deg

Wind Spd Definition
km/h
Visibility Definition
km
Stn Press Definition
kPa
Hmdx Definition


Wind Chill Definition


Weather Definition


TIME
00:00 Legend Double Dagger 1.2 -6.1 58 36 22 24.1 96.04     LegendNANA
01:00 Legend Double Dagger 0.8 -6.8 57 36 17 24.1 96.09     LegendNANA
02:00 Legend Double Dagger -0.8 -6.9 64 34 11 24.1 96.16   -5 Mainly Clear
03:00 Legend Double Dagger -1.9 -6.9 68 32 12 24.1 96.20   -6 LegendNANA
04:00 Legend Double Dagger -3.3 -7.5 73 30 7 24.1 96.23   -6 LegendNANA
05:00 Legend Double Dagger -3.6 -8.3 70 30 9 24.1 96.28   -7 Mainly Clear
06:00 Legend Double Dagger -4.0 -8.4 71 29 8 24.1 96.33   -7 LegendNANA
07:00 Legend Double Dagger -3.5 -8.3 69 31 11 24.1 96.37   -8 LegendNANA
08:00 Legend Double Dagger -1.9 -7.2 67 31 9 24.1 96.42   -5 Mainly Clear
09:00 Legend Double Dagger 0.9 -6.7 57 35 10 24.1 96.42     LegendNANA
10:00 Legend Double Dagger 2.0 -6.6 53 36 11 24.1 96.45     LegendNANA
11:00 Legend Double Dagger 3.3 -6.2 50 35 16 24.1 96.44     Mainly Clear
12:00 Legend Double Dagger 4.4 -6.9 44 32 13 24.1 96.40     LegendNANA
13:00 Legend Double Dagger 5.3 -8.0 38 34 11 24.1 96.35     LegendNANA
14:00 Legend Double Dagger 6.7 -9.4 31 33 15 24.1 96.33     Clear
15:00 Legend Double Dagger 7.0 -8.9 31 1 8 24.1 96.27     LegendNANA
16:00 Legend Double Dagger 8.0 -7.8 32 32 9 24.1 96.21     LegendNANA
17:00 Legend Double Dagger 7.9 -6.3 36 34 8 24.1 96.20     Clear
18:00 Legend Double Dagger 6.2 -8.0 35 7 8 24.1 96.19     LegendNANA
19:00 Legend Double Dagger 3.1 -7.6 45 9 3 24.1 96.16     LegendNANA
20:00 Legend Double Dagger -2.6 -9.0 61 26 7 24.1 96.16   -5 Clear
21:00 Legend Double Dagger -2.2 -8.1 64 28 4 24.1 96.13   -4 LegendNANA
22:00 Legend Double Dagger -2.9 -7.9 69 26 3 24.1 96.11   -4 LegendNANA
23:00 Legend Double Dagger -3.4 -7.4 74 19 11 24.1 96.09   -8 Clear

Notes on Data Quality.

Legend

  • E = Estimated
  • M = Missing
  • NA = Not Available
  • ‡ = Partner data that is not subject to review by the National Climate Archives
Date modified: